STARLINK-5979 (56345 NORAD) Tracking and Keplerian Element Data

This shows tracking and keplerian element data for the satellite.

Feedback or suggestion? Click here.




ElementValue
Catalog56345
NameSTARLINK-5979
Epoch Orbit181
Epoch Day127.00001157
Epoch Year2023
RAAN126.4748
Inclination97.6643
Eccentricity0.0001354
Argument of Perigee89.5054
Mean Anonmoly241.7989
Mean Motion15.68220084
Decay Rate-0.00870555
L11 56345U 23058AE 23127.00001157 -.00870555 00000+0 -86705-2 0 9999
L22 56345 97.6643 126.4748 0001354 89.5054 241.7989 15.68220084 1812



Live tracking and technical data element details for STARLINK-5979 (NORAD 56345). STARLINK-5979 can be tracked NOW for your location showing map with azimuth and elevation plus other details from your city location.







IsCatalogInMostPopularTable: catalog: 56345, numindb: 2
Update: records affected: 1



GetName: 56345 STARLINK-5979

Hit Count: updated at: Sat, 03 Jun 2023 19:12:34 GMT